Regional Weather Roundup
Issued by NWS

Home | Current Version | Previous Version | Text Only | Print | Product List | Glossary Off
Versions: 1 2 3 4 5 6 7 8 9 10 11 12 13 14 15 16 17 18 19 20 21 22 23 24 25 26 27 28 29 30 31 32 33 34 35 36 37 38 39 40 41 42 43 44 45 46 47 48 49 50

000
ASUS43 KFSD 231402
RWRSD

WEATHER ROUNDUP FOR SOUTH DAKOTA
NATIONAL WEATHER SERVICE SIOUX FALLS SD
900 AM CDT TUE SEP 23 2014

NOTE: "FAIR" INDICATES FEW OR NO CLOUDS BELOW 12,000 FEET WITH NO
SIGNIFICANT WEATHER AND/OR OBSTRUCTIONS TO VISIBILITY.


SDZ001>005-009-010-012>017-231500-
NORTHWEST AND NORTH CENTRAL SOUTH DAKOTA

CITY           SKY/WX    TMP DP  RH WIND       PRES   REMARKS
FAITH            N/A     56  54  93 SE12      29.91S
MOBRIDGE       CLOUDY    63  57  81 SE12      29.92F
$$

SDZ012>016-024>037-041>051-057-063-072>074-231500-
SOUTHWEST AND SOUTH CENTRAL SOUTH DAKOTA

CITY           SKY/WX    TMP DP  RH WIND       PRES   REMARKS
RAPID CTY ARPT PTSUNNY   59  55  87 E5        29.93R
PIERRE         MOSUNNY   58  53  84 SE13      29.92S
CUSTER         CLOUDY    57  47  69 VRB3      30.04R
ELLSWORTH AFB  CLOUDY    60  56  87 NE2       29.93R
PHILIP         PTSUNNY   57  52  83 E3        29.90S
PINE RIDGE     MOSUNNY   62  53  72 VRB3      29.93S
WINNER         CLOUDY    60  54  80 S18G28    29.95F
$$

SDZ004>011-016>023-039-040-231500-
NORTHEAST SOUTH DAKOTA

CITY           SKY/WX    TMP DP  RH WIND       PRES   REMARKS
ABERDEEN       LGT RAIN  59  56  89 SE8       30.03R
WATERTOWN      CLOUDY    57  51  80 S10       30.09R
SISSETON         N/A     54  51  90 SE7       30.06S
$$

SDZ017-020-022-023-036>040-048>070-231500-
SOUTHEAST SOUTH DAKOTA

CITY           SKY/WX    TMP DP  RH WIND       PRES   REMARKS
SIOUX FALLS    LGT RAIN  57  54  89 S12       30.15R
HURON          LGT RAIN  58  56  93 SE15G22   30.03S
CHAMBERLAIN    CLOUDY    58  55  87 S18G24    29.96F
MITCHELL       RAIN      58  57  97 S16G24    30.06S FOG
YANKTON        CLOUDY    55  54  94 SE9       30.11S
$$

ABBREVIATIONS USED IN REMARKS
   TC - TEMPERATURE IN CELSIUS
  WCI - WIND CHILL INDEX
   HX - HEAT INDEX
  VSB - VISIBILITY




USA.gov is the U.S. government's official web portal to all federal, state and local government web resources and services.